AGILA

Last updated on Sun Apr 12 2026 00:02:57 GMT+0000 (Coordinated Universal Time)

1 62456U 24252C 26101.47934181 -.00000180 00000+0 00000+0 0 9993 2 62456 0.0441 119.2288 0001494 259.7717 145.4298 1.00268993 4499
UTC large
Height (km)
Speed (km/s)
/
Latitude / Longitude
Inclination (degrees)
Orbital Period (minutes)
Azimuth
Elevation
Range (km)
Doppler Factor

Next 0 passes for location: London (51.5072 / 0.1276)

Sorry there are no passes over London.
AGILA